FW7665 Weather Reports


Display with metric or nautical units.
time (UTC)temp
F
wind
direction
speed
MPH
gust
MPH
rain 1hr
in
rain 24hr
in
rain mn
in
humidity
%
barometer
mb
20260902170031 73 98 4.0 16.0 0.00 0.00 0.00 31 1024.2
20260902165430 72 68 4.0 16.0 0.00 0.00 0.00 31 1024.2
20260902164508 72 57 3.0 11.0 0.00 0.00 0.00 33 1024.2
20260902163610 71 75 4.0 12.0 0.00 0.00 0.00 34 1024.2
20260902162708 70 73 5.0 11.0 0.00 0.00 0.00 34 1024.2
20260902161809 69 12 2.0 9.0 0.00 0.00 0.00 38 1024.2
20260902160908 68 37 2.0 6.0 0.00 0.00 0.00 41 1024.2
20260902160014 67 52 2.0 5.0 0.00 0.00 0.00 40 1024.2
20260902155410 66 96 2.0 8.0 0.00 0.00 0.00 42 1024.2
20260902154508 64 106 3.0 8.0 0.00 0.00 0.00 44 1024.2
20260902153609 62 121 2.0 5.0 0.00 0.00 0.00 57 1024.2
20260902152708 60 335 1.0 7.0 0.00 0.00 0.00 57 1024.2
20260902151809 56 78 2.0 5.0 0.00 0.00 0.00 71 1024.2
20260902150908 52 124 1.0 3.0 0.00 0.00 0.00 77 1024.2
20260902150009 50 0 0.0 0.0 0.00 0.00 0.00 86 1024.8
20260902145409 49 141 0.0 2.0 0.00 0.00 0.00 87 1024.8
20260902144508 48 0 0.0 0.0 0.00 0.00 0.00 85 1024.8
20260902143609 46 0 0.0 0.0 0.00 0.00 0.00 86 1024.8
20260902142729 46 0 0.0 0.0 0.00 0.00 0.00 86 1024.8
20260902141809 45 0 0.0 0.0 0.00 0.00 0.00 85 1024.8
20260902140908 44 0 0.0 0.0 0.00 0.00 0.00 85 1024.8
20260902140009 44 167 0.0 1.0 0.00 0.00 0.00 85 1025.1
20260902135430 44 0 0.0 0.0 0.00 0.00 0.00 85 1025.1
20260902134529 43 0 0.0 0.0 0.00 0.00 0.00 85 1025.1
20260902133609 43 0 0.0 0.0 0.00 0.00 0.00 85 1025.1
20260902132708 43 0 0.0 0.0 0.00 0.00 0.00 85 1025.1
20260902131808 43 0 0.0 0.0 0.00 0.00 0.00 85 1025.1
20260902130907 43 0 0.0 0.0 0.00 0.00 0.00 85 1025.1
20260902130015 43 0 0.0 0.0 0.00 0.00 0.00 85 1024.8
20260902125409 43 0 0.0 0.0 0.00 0.00 0.00 85 1024.8
20260902124507 43 0 0.0 0.0 0.00 0.00 0.00 86 1024.8
20260902123609 43 0 0.0 0.0 0.00 0.00 0.00 86 1024.8
20260902122729 43 0 0.0 0.0 0.00 0.00 0.00 86 1024.8
20260902121809 43 0 0.0 0.0 0.00 0.00 0.00 86 1024.8
20260902120907 43 0 0.0 0.0 0.00 0.00 0.00 86 1024.8
20260902120029 43 119 0.0 2.0 0.00 0.00 0.00 86 1024.8
20260902115408 43 119 0.0 2.0 0.00 0.00 0.00 85 1024.8
20260902114507 43 0 0.0 0.0 0.00 0.00 0.00 85 1024.8
20260902113608 43 0 0.0 0.0 0.00 0.00 0.00 85 1024.8
20260902112707 43 0 0.0 0.0 0.00 0.00 0.00 85 1024.8
20260902111808 44 0 0.0 0.0 0.00 0.00 0.00 85 1024.8
20260902110907 44 0 0.0 0.0 0.00 0.00 0.00 84 1024.8
20260902110030 44 0 0.0 0.0 0.00 0.00 0.00 84 1024.8
20260902105408 44 0 0.0 0.0 0.00 0.00 0.00 84 1024.8
20260902104507 44 0 0.0 0.0 0.00 0.00 0.00 84 1024.8
20260902103629 45 0 0.0 0.0 0.00 0.00 0.00 83 1024.8
20260902102728 45 0 0.0 0.0 0.00 0.00 0.00 83 1024.8
20260902101808 46 0 0.0 0.0 0.00 0.00 0.00 83 1024.8
20260902100907 46 0 0.0 0.0 0.00 0.00 0.00 83 1024.8
20260902100009 46 0 0.0 0.0 0.00 0.00 0.00 82 1025.0
20260902095408 46 0 0.0 0.0 0.00 0.00 0.00 82 1025.0
20260902094507 46 0 0.0 0.0 0.00 0.00 0.00 82 1025.0
20260902093629 47 0 0.0 0.0 0.00 0.00 0.00 81 1025.0
20260902092707 47 0 0.0 0.0 0.00 0.00 0.00 81 1025.0
20260902091808 47 0 0.0 0.0 0.00 0.00 0.00 81 1025.0
20260902090907 47 0 0.0 0.0 0.00 0.00 0.00 80 1025.0
20260902090008 47 0 0.0 0.0 0.00 0.00 0.00 80 1025.1
20260902085429 48 0 0.0 0.0 0.00 0.00 0.00 79 1025.1
20260902084527 48 0 0.0 0.0 0.00 0.00 0.00 79 1025.1
20260902083608 48 0 0.0 0.0 0.00 0.00 0.00 79 1025.1
20260902082728 48 0 0.0 0.0 0.00 0.00 0.00 79 1025.1
20260902081807 48 0 0.0 0.0 0.00 0.00 0.00 77 1025.1
20260902080907 49 0 0.0 0.0 0.00 0.00 0.00 77 1025.1
20260902080009 49 0 0.0 0.0 0.00 0.00 0.00 77 1025.1
20260902075408 49 0 0.0 0.0 0.00 0.00 0.00 78 1025.1
20260902074506 49 0 0.0 0.0 0.00 0.00 0.00 77 1025.1
20260902073607 50 0 0.0 0.0 0.00 0.00 0.00 76 1025.1
20260902072707 50 0 0.0 0.0 0.00 0.00 0.00 77 1025.1
20260902071807 50 0 0.0 0.0 0.00 0.00 0.00 77 1025.1
20260902070927 50 0 0.0 0.0 0.00 0.00 0.00 76 1025.1
20260902070017 51 0 0.0 0.0 0.00 0.00 0.00 77 1025.1
20260902065407 51 0 0.0 0.0 0.00 0.00 0.00 76 1025.1
20260902064506 51 0 0.0 0.0 0.00 0.00 0.00 75 1025.1
20260902063607 51 0 0.0 0.0 0.00 0.00 0.00 76 1025.1
20260902062706 51 0 0.0 0.0 0.00 0.00 0.00 74 1025.1
20260902061807 51 0 0.0 0.0 0.00 0.00 0.00 75 1025.1
20260902060906 52 0 0.0 0.0 0.00 0.00 0.00 74 1025.1
20260902060012 52 0 0.0 0.0 0.00 0.00 0.00 73 1025.1
20260902055408 52 0 0.0 0.0 0.00 0.00 0.00 73 1025.1
20260902054506 52 0 0.0 0.0 0.00 0.00 0.00 73 1025.1
20260902053607 52 0 0.0 0.0 0.00 0.00 0.00 73 1025.1
20260902051807 52 119 0.0 2.0 0.00 0.00 0.00 73 1025.2
20260902050906 53 0 0.0 0.0 0.00 0.00 0.00 70 1025.2
20260902050033 53 0 0.0 0.0 0.00 0.00 0.00 72 1025.2
20260902045407 53 0 0.0 0.0 0.00 0.00 0.00 71 1025.2
20260902044506 54 0 0.0 0.0 0.00 0.00 0.00 69 1025.2
20260902043607 54 0 0.0 0.0 0.00 0.00 0.00 70 1025.2
20260902042706 55 0 0.0 0.0 0.00 0.00 0.00 69 1025.2
20260902041806 55 0 0.0 0.0 0.00 0.00 0.00 71 1024.9
20260902040906 56 0 0.0 0.0 0.00 0.00 0.00 73 1024.9
20260902040007 56 0 0.0 0.0 0.00 0.01 0.00 71 1024.9
20260902035427 56 0 0.0 0.0 0.00 0.01 0.00 71 1024.9
20260902034506 56 0 0.0 0.0 0.00 0.01 0.00 72 1024.9
20260902033606 57 0 0.0 0.0 0.00 0.01 0.00 69 1024.9
20260902032705 57 0 0.0 0.0 0.00 0.01 0.00 70 1024.9
20260902031806 57 0 0.0 0.0 0.00 0.01 0.00 67 1023.2
20260902030927 58 0 0.0 0.0 0.00 0.01 0.00 70 1023.2
20260902030027 58 0 0.0 0.0 0.00 0.01 0.00 70 1023.2
20260902025406 58 0 0.0 0.0 0.00 0.01 0.00 68 1023.2
20260902024505 58 0 0.0 0.0 0.00 0.01 0.00 70 1023.2
20260902023629 59 0 0.0 0.0 0.00 0.01 0.00 69 1023.2
20260902022705 59 0 0.0 0.0 0.00 0.02 0.00 68 1023.2
20260902021806 59 0 0.0 0.0 0.00 0.02 0.00 68 1023.2
20260902020905 60 0 0.0 0.0 0.00 0.03 0.00 66 1023.2
20260902020007 60 0 0.0 0.0 0.00 0.04 0.00 63 1023.2
20260902015406 61 0 0.0 0.0 0.00 0.06 0.00 60 1023.2
20260902014505 61 0 0.0 0.0 0.00 0.08 0.00 59 1023.2
20260902013606 62 0 0.0 0.0 0.00 0.09 0.00 60 1023.2
20260902012705 63 117 0.0 2.0 0.00 0.09 0.00 56 1023.2
20260902011806 63 0 0.0 0.0 0.00 0.09 0.00 58 1023.2
20260902010905 64 0 0.0 0.0 0.00 0.09 0.00 58 1023.2
20260902010006 64 0 0.0 0.0 0.00 0.09 0.00 55 1023.2
20260902005428 64 0 0.0 0.0 0.00 0.09 0.00 57 1023.2
20260902004505 66 117 0.0 2.0 0.00 0.09 0.00 50 1023.2
20260902003606 66 117 2.0 7.0 0.00 0.09 0.00 50 1023.2
20260902002705 67 113 3.0 7.0 0.00 0.09 0.00 49 1023.2
20260902001806 68 107 3.0 7.0 0.00 0.09 0.00 46 1023.2
20260902000905 68 72 2.0 7.0 0.00 0.09 0.00 45 1023.2
20260902000006 68 345 1.0 3.0 0.00 0.09 0.00 49 1023.2
20260901235406 69 62 2.0 6.0 0.00 0.09 0.00 44 1023.2
20260901234505 68 100 2.0 5.0 0.00 0.11 0.00 38 1024.3
20260901233606 68 177 1.0 3.0 0.00 0.12 0.00 42 1024.3
20260901232707 66 182 1.0 2.0 0.00 0.12 0.00 44 1024.3
20260901231804 67 181 1.0 4.0 0.00 0.13 0.00 42 1024.3
20260901230905 68 109 1.0 4.0 0.00 0.15 0.00 43 1024.3
20260901230027 69 96 2.0 7.0 0.00 0.15 0.00 36 1024.3
20260901225407 68 108 2.0 7.0 0.00 0.15 0.00 41 1024.3
20260901224505 68 168 2.0 6.0 0.00 0.15 0.00 42 1024.3
20260901223604 68 125 2.0 10.0 0.00 0.15 0.00 41 1024.3
20260901222705 68 149 2.0 7.0 0.00 0.15 0.00 42 1024.3
20260901221804 69 326 3.0 12.0 0.00 0.15 0.00 38 1024.3
20260901220905 69 290 2.0 7.0 0.00 0.15 0.00 41 1024.3
20260901220005 69 263 3.0 8.0 0.00 0.15 0.00 38 1024.3
20260901215404 69 285 3.0 10.0 0.00 0.15 0.00 37 1024.3
20260901214504 69 245 3.0 10.0 0.00 0.15 0.00 39 1024.3
20260901213605 69 259 2.0 7.0 0.00 0.15 0.00 37 1024.3
20260901212705 70 265 3.0 8.0 0.00 0.15 0.00 36 1024.3
20260901211825 70 237 3.0 8.0 0.00 0.15 0.00 36 1024.3
20260901210905 70 269 3.0 9.0 0.00 0.15 0.00 35 1024.3
20260901210005 68 253 2.0 7.0 0.00 0.15 0.00 41 1024.3
20260901205405 66 255 3.0 9.0 0.00 0.15 0.00 41 1024.3
20260901204505 65 268 3.0 11.0 0.00 0.15 0.00 45 1024.3
20260901203625 65 245 4.0 12.0 0.00 0.15 0.00 42 1024.3
20260901202705 67 258 4.0 13.0 0.00 0.15 0.00 42 1024.3
20260901201804 68 283 2.0 7.0 0.00 0.15 0.00 41 1024.3
20260901200905 69 356 2.0 5.0 0.00 0.15 0.00 44 1024.3
20260901200006 71 52 2.0 6.0 0.00 0.15 0.00 39 1024.3
20260901195404 70 55 3.0 10.0 0.00 0.15 0.00 38 1024.3
20260901194505 70 32 2.0 8.0 0.00 0.15 0.00 37 1024.3
20260901193625 71 61 3.0 8.0 0.00 0.15 0.00 38 1024.3
20260901192705 72 59 4.0 10.0 0.00 0.15 0.00 36 1024.3
20260901191807 72 26 4.0 12.0 0.00 0.15 0.00 38 1024.3
20260901190905 72 29 2.0 4.0 0.00 0.15 0.00 43 1024.3
20260901190004 71 282 2.0 4.0 0.00 0.15 0.00 35 1025.1
20260901185403 69 264 3.0 8.0 0.00 0.15 0.00 40 1025.1
20260901184526 68 257 2.0 6.0 0.00 0.15 0.00 41 1025.1
20260901183604 69 291 2.0 7.0 0.00 0.15 0.00 40 1025.1
20260901182726 68 28 2.0 11.0 0.00 0.15 0.00 43 1025.1
20260901181804 71 2 4.0 11.0 0.00 0.15 0.00 35 1025.1
20260901180904 70 20 2.0 9.0 0.00 0.15 0.00 37 1025.1
20260901180004 71 70 2.0 4.0 0.00 0.15 0.00 35 1025.1
20260901175425 72 83 2.0 6.0 0.00 0.15 0.00 36 1025.1
20260901174526 71 64 3.0 8.0 0.00 0.15 0.00 36 1025.1
20260901173625 70 61 3.0 7.0 0.00 0.15 0.00 43 1025.1
20260901172726 70 110 2.0 7.0 0.00 0.15 0.00 40 1025.1
20260901171804 69 110 2.0 10.0 0.00 0.15 0.00 41 1025.1
20260901170905 68 15 4.0 11.0 0.00 0.15 0.00 43 1025.1